Stations météo

réclame
Mon MeteoGroup
Saint-Brieuc, France (7120): Température de l'air & dewpoint: 28.05.2020 09:00:00 - 03.06.2020 09:00:00 (CEST)Saint-Brieuc, France (7120): Température de l'air 5cm: 28.05.2020 09:00:00 - 03.06.2020 09:00:00 (CEST)Saint-Brieuc, France (7120): Température de l'air -20cm & Température de l'air -100cm: 28.05.2020 09:00:00 - 03.06.2020 09:00:00 (CEST)Saint-Brieuc, France (7120): Vitesse du vent & gusts: 28.05.2020 09:00:00 - 03.06.2020 09:00:00 (CEST)Saint-Brieuc, France (7120): Direction du vent: 28.05.2020 09:00:00 - 03.06.2020 09:00:00 (CEST)Saint-Brieuc, France (7120): reduced air pressure: 28.05.2020 09:00:00 - 03.06.2020 09:00:00 (CEST)Saint-Brieuc, France (7120): visibility: 28.05.2020 09:00:00 - 03.06.2020 09:00:00 (CEST)Saint-Brieuc, France (7120): Ensoleillement: 28.05.2020 09:00:00 - 03.06.2020 09:00:00 (CEST)Saint-Brieuc, France (7120): Quantités de précipitations: 28.05.2020 09:00:00 - 03.06.2020 09:00:00 (CEST)
Date & Time tt [°C] td [°C] tt 5cm [°C] tt -20cm [°C] tt -100cm [°C] ff [km/h] ff [knt] fx [km/h] fx [knt] dd ppp [hPa] vv [km] sd [min] rr [mm]
03.06.2020 09:00:00 15,2 11,6 14,2 16,7 14,7 13 7 20 11 WNW 1009,8 20 0 0,0
03.06.2020 08:00:00 14,0 11,3 12,9 16,8 14,8 13 7 22 12 W 1010,3 19 0 0,0
03.06.2020 07:00:00 13,2 10,4 11,2 17,0 14,8 10 5 17 9 W 1010,7 20 2 0,0
03.06.2020 06:00:00 12,5 9,3 10,8 17,1 14,8 11 6 16 9 W 1011,3 20 0 0,0
03.06.2020 05:00:00 12,6 8,1 9,9 17,3 14,8 12 6 17 9 W 1011,9 20 0 0,0
03.06.2020 04:00:00 12,4 7,7 10,0 17,6 14,8 12 7 14 8 W 1012,8 20 0 0,0
03.06.2020 03:00:00 12,3 7,6 9,6 17,8 14,8 11 6 13 7 W 1013,5 20 0 0,0
03.06.2020 02:00:00 12,3 8,2 9,6 18,1 14,8 9 5 10 6 W 1014,5 20 0 0,0
03.06.2020 01:00:00 13,0 8,7 9,6 18,4 14,8 9 5 11 6 W 1015,1 20 0 0,0
03.06.2020 00:00:00 13,7 8,5 7,5 18,7 14,8 6 3 11 6 WNW 1015,8 20 0 0,0
02.06.2020 23:00:00 14,5 8,0 7,3 19,0 14,8 4 2 9 5 NNW 1016,1 20 0 0,0
02.06.2020 22:00:00 16,2 8,2 12,5 19,2 14,7 6 3 14 7 N 1016,0 20 38 0,0
02.06.2020 21:00:00 18,6 8,0 20,0 19,3 14,7 10 6 20 11 NNE 1016,0 20 60 0,0
02.06.2020 20:00:00 19,5 7,9 24,4 19,3 14,7 14 7 24 13 N 1016,4 20 60 0,0
02.06.2020 19:00:00 20,2 9,4 27,1 19,2 14,7 14 8 22 12 NNE 1016,6 20 60 0,0
02.06.2020 18:00:00 20,5 9,4 27,9 18,9 14,7 12 6 26 14 N 1017,0 20 60 0,0
02.06.2020 17:00:00 20,3 9,8 28,7 18,6 14,7 13 7 24 13 NNE 1017,6 20 60 0,0
02.06.2020 16:00:00 20,9 9,8 28,2 18,2 14,7 18 10 27 15 NNE 1018,0 20 60 0,0
02.06.2020 15:00:00 19,9 10,9 28,9 17,7 14,7 16 9 24 13 NNE 1018,3 20 60 0,0
02.06.2020 14:00:00 19,9 10,3 28,3 17,2 14,7 13 7 22 12 NNE 1018,7 20 60 0,0
02.06.2020 13:00:00 19,7 10,7 28,6 16,7 14,6 11 6 22 12 NNE 1019,0 20 60 0,0
02.06.2020 12:00:00 18,9 10,7 25,0 16,4 14,7 10 5 30 16 NNE 1019,4 0,2 60 0,0
02.06.2020 11:00:00 17,7 10,3 23,0 16,2 14,7 13 7 21 12 NNE 1019,7 20 60 0,0
02.06.2020 10:00:00 16,4 10,5 20,0 16,2 14,7 13 7 21 11 NNE 1020,1 20 60 0,0
02.06.2020 09:00:00 15,5 10,9 18,0 16,2 14,7 14 7 20 11 NNE 1019,8 20 60 0,0
02.06.2020 08:00:00 13,2 11,4 10,2 16,4 14,7 6 3 11 6 NNW 1019,7 20 60 0,0
02.06.2020 07:00:00 10,9 9,8 6,8 16,5 14,7 8 4 11 6 NW 1019,7 18 20 0,0
02.06.2020 06:00:00 10,8 9,7 6,9 16,7 14,7 5 3 11 6 WNW 1019,5 20 0 0,0
02.06.2020 05:00:00 10,8 8,7 6,6 16,9 14,7 5 3 9 5 NNW 1019,7 20 0 0,0
02.06.2020 04:00:00 11,5 9,4 7,0 17,2 14,7 5 3 9 5 NW 1019,9 20 0 0,0
02.06.2020 03:00:00 12,0 9,2 6,0 17,4 14,7 5 3 7 4 NNW 1020,1 20 0 0,0
02.06.2020 02:00:00 13,0 9,8 6,1 17,7 14,6 4 2 7 4 NNE 1020,1 20 0 0,0
02.06.2020 01:00:00 13,6 9,8 7,3 17,9 14,7 4 2 10 5 NNE 1020,4 20 0 0,0
02.06.2020 00:00:00 13,8 9,2 7,7 18,1 14,6 6 3 12 6 N 1020,6 20 0 0,0
01.06.2020 23:00:00 15,4 10,2 12,3 18,4 14,6 7 4 22 12 N 1020,3 20 0 0,0
01.06.2020 22:00:00 16,5 10,1 14,6 18,5 14,7 11 6 26 14 NNE 1019,5 20 37 0,0
01.06.2020 21:00:00 18,1 10,0 19,0 18,6 14,6 14 7 28 15 NNE 1019,1 20 60 0,0
01.06.2020 20:00:00 19,0 10,0 21,7 18,7 14,6 20 11 39 21 NE 1018,9 20 60 0,0
01.06.2020 19:00:00 19,7 9,6 23,6 18,6 14,6 25 14 41 22 NE 1018,6 20 60 0,0
01.06.2020 18:00:00 20,2 10,3 25,3 18,5 14,7 26 14 41 22 NE 1018,8 20 60 0,0
01.06.2020 17:00:00 20,5 9,7 26,1 18,2 14,7 27 15 39 21 NE 1019,1 20 60 0,0
01.06.2020 16:00:00 20,5 10,3 26,4 17,8 14,7 26 14 41 22 NE 1019,2 20 60 -
01.06.2020 15:00:00 19,8 11,0 26,1 17,4 14,6 24 13 35 19 NE 1019,4 20 60 0,0
01.06.2020 14:00:00 19,6 10,8 26,4 17,0 14,7 26 14 35 19 NE 1019,4 19 60 0,0
01.06.2020 13:00:00 18,3 12,3 25,1 16,6 14,6 24 13 31 17 NE 1019,6 20 60 0,0
01.06.2020 12:00:00 17,7 12,6 23,8 16,3 14,6 21 11 31 17 NE 1019,4 19 60 0,0
01.06.2020 11:00:00 16,5 12,6 21,8 16,1 14,5 17 9 26 14 NNE 1019,4 19 60 0,0
01.06.2020 10:00:00 16,1 12,8 20,8 16,1 14,6 14 8 21 11 NNE 1019,3 19 58 0,0
01.06.2020 09:00:00 15,3 12,6 17,8 16,1 14,6 13 7 18 10 NNE 1019,0 20 60 0,0
01.06.2020 08:00:00 14,1 12,8 8,8 16,3 14,6 13 7 17 9 NE 1018,7 13 60 0,0
01.06.2020 07:00:00 11,7 11,2 5,2 16,4 14,6 5 3 11 6 N 1018,6 11 19 0,0
01.06.2020 06:00:00 10,7 9,9 5,7 16,6 14,6 9 5 11 6 NNE 1018,4 14 0 0,0
01.06.2020 05:00:00 11,4 10,6 6,5 16,9 14,6 5 3 10 6 NNE 1018,6 16 0 0,0
01.06.2020 04:00:00 11,4 10,5 4,9 17,1 14,6 6 3 11 6 NNE 1018,9 17 0 0,0
01.06.2020 03:00:00 11,0 9,4 5,2 17,3 14,5 10 5 12 7 NE 1018,8 18 0 0,0
01.06.2020 02:00:00 11,9 10,5 7,1 17,5 14,6 9 5 13 7 NNE 1019,1 20 0 0,0
01.06.2020 01:00:00 13,7 11,0 11,2 17,8 14,6 8 4 22 12 E 1019,0 20 0 0,0
01.06.2020 00:00:00 15,2 10,8 13,7 18,0 14,6 16 9 38 20 E 1018,3 20 0 0,0
31.05.2020 23:00:00 15,8 10,3 14,3 18,2 14,5 25 13 42 23 ENE 1018,2 20 0 0,0
31.05.2020 22:00:00 16,2 10,5 15,2 18,4 14,5 26 14 47 26 ENE 1017,6 20 36 0,0
31.05.2020 21:00:00 17,4 10,3 17,8 18,5 14,5 30 16 50 27 ENE 1017,3 20 60 0,0
31.05.2020 20:00:00 19,1 9,8 21,1 18,6 14,6 34 18 55 30 ENE 1016,8 20 60 0,0
31.05.2020 19:00:00 20,3 9,5 23,2 18,6 14,6 37 20 51 28 ENE 1016,4 20 60 0,0
31.05.2020 18:00:00 21,9 9,8 26,4 18,3 14,6 31 17 45 24 ENE 1016,5 20 60 0,0
31.05.2020 17:00:00 23,0 8,7 27,9 18,0 14,6 29 16 41 22 NE 1016,5 20 60 0,0
31.05.2020 16:00:00 23,6 7,6 28,1 17,7 14,6 32 17 48 26 ENE 1016,5 20 60 0,0
31.05.2020 15:00:00 23,3 8,2 27,6 17,3 14,6 29 16 45 24 ENE 1016,6 20 60 0,0
31.05.2020 14:00:00 23,1 9,8 27,7 16,9 14,5 24 13 40 21 ENE 1016,8 20 60 0,0
31.05.2020 13:00:00 22,4 9,2 27,4 16,5 14,6 23 12 36 20 ENE 1016,8 6 60 0,0
31.05.2020 12:00:00 22,2 8,3 26,0 16,2 14,5 18 10 35 19 ENE 1017,1 20 60 0,0
31.05.2020 11:00:00 21,1 8,4 24,4 16,0 14,5 13 7 24 13 E 1017,4 20 60 0,0
31.05.2020 10:00:00 19,6 8,3 21,4 15,9 14,5 13 7 22 12 ESE 1017,6 20 60 0,0
31.05.2020 09:00:00 17,8 8,9 19,4 16,0 14,5 10 5 15 8 E 1017,5 20 60 0,0
31.05.2020 08:00:00 16,4 9,3 10,6 16,1 14,5 4 2 8 4 E 1017,4 20 60 0,0
31.05.2020 07:00:00 13,5 8,8 7,0 16,3 14,5 4 2 8 4 ESE 1017,3 20 19 0,0
31.05.2020 06:00:00 12,5 9,0 6,1 16,5 14,5 5 3 8 4 SE 1017,1 20 0 0,0
31.05.2020 05:00:00 12,8 9,1 5,8 16,7 14,5 3 2 5 3 ESE 1017,2 20 0 0,0
31.05.2020 04:00:00 13,4 9,3 6,2 17,0 14,5 2 1 6 3 SE 1017,2 20 0 0,0
31.05.2020 03:00:00 13,9 9,5 6,4 17,2 14,5 5 3 8 4 ESE 1017,6 20 0 0,0
31.05.2020 02:00:00 13,2 9,8 6,2 17,4 14,4 3 1 10 5 NNE 1017,8 20 0 0,0
31.05.2020 01:00:00 15,1 9,7 7,3 17,7 14,5 6 3 11 6 ENE 1017,8 20 0 0,0
31.05.2020 00:00:00 14,2 9,6 8,0 17,9 14,5 3 2 15 8 NE 1017,8 20 0 0,0
30.05.2020 23:00:00 15,7 9,6 12,2 18,1 14,5 10 5 26 14 E 1017,7 20 0 0,0
30.05.2020 22:00:00 16,5 10,3 14,9 18,3 14,5 16 9 32 18 ENE 1017,2 20 35 0,0
30.05.2020 21:00:00 17,8 10,2 18,2 18,4 14,4 19 10 36 19 ENE 1017,1 20 60 0,0
30.05.2020 20:00:00 19,5 9,9 21,6 18,5 14,5 25 14 40 22 ENE 1017,0 20 60 0,0
30.05.2020 19:00:00 20,9 8,8 24,2 18,4 14,5 26 14 40 22 ENE 1017,1 20 60 0,0
30.05.2020 18:00:00 21,6 8,8 25,5 18,2 14,5 29 15 45 24 ENE 1017,5 19 60 0,0
30.05.2020 17:00:00 21,4 9,9 26,7 17,9 14,5 29 15 40 22 NE 1017,6 20 60 0,0
30.05.2020 16:00:00 22,3 10,1 27,5 17,6 14,5 29 15 39 21 NE 1018,0 20 60 0,0
30.05.2020 15:00:00 22,3 8,0 27,3 17,1 14,5 29 15 41 22 ENE 1018,3 19 60 0,0
30.05.2020 14:00:00 22,2 8,7 27,1 16,7 14,4 24 13 36 20 ENE 1018,7 20 60 0,0
30.05.2020 13:00:00 21,6 9,2 27,2 16,3 14,4 20 11 28 15 ENE 1019,0 20 60 0,0
30.05.2020 12:00:00 21,2 10,9 25,8 16,0 14,4 14 7 26 14 ENE 1019,3 20 60 0,0
30.05.2020 11:00:00 20,3 9,2 23,4 15,8 14,4 14 7 22 12 SE 1019,7 20 60 0,0
30.05.2020 10:00:00 18,6 9,4 22,4 15,7 14,4 9 5 15 8 ESE 1020,0 20 60 0,0
30.05.2020 09:00:00 16,6 12,3 19,9 15,7 14,4 8 4 10 6 NE 1020,0 19 60 0,0
30.05.2020 08:00:00 14,1 12,0 6,9 15,9 14,4 0 0 2 1 N 1020,3 16 60 0,0
30.05.2020 07:00:00 10,7 9,0 4,2 16,1 14,4 0 0 3 2 N 1020,3 20 18 0,2
30.05.2020 06:00:00 10,6 9,4 3,0 16,3 14,4 0 0 3 2 N 1020,1 20 0 0,0
30.05.2020 05:00:00 11,3 10,5 4,5 16,5 14,4 0 0 4 2 N 1020,3 15 0 0,0
30.05.2020 04:00:00 11,9 10,6 4,6 16,8 14,4 0 0 3 1 N 1020,7 16 0 0,0
30.05.2020 03:00:00 12,2 10,6 4,9 17,0 14,4 0 0 5 3 N 1020,9 19 0 0,0
30.05.2020 02:00:00 12,7 10,6 5,5 17,2 14,4 2 1 5 3 W 1021,1 20 0 0,0
30.05.2020 01:00:00 12,8 10,3 5,7 17,5 14,4 3 2 9 5 NNE 1021,1 20 0 0,0
30.05.2020 00:00:00 13,0 9,6 6,4 17,8 14,4 4 2 13 7 N 1021,2 20 0 0,0
29.05.2020 23:00:00 14,2 9,6 11,5 18,0 14,4 9 5 22 12 ENE 1021,2 20 0 0,0
29.05.2020 22:00:00 15,9 10,0 14,5 18,1 14,4 16 9 36 19 E 1020,6 20 35 0,0
29.05.2020 21:00:00 17,4 9,8 17,7 18,3 14,3 22 12 41 22 ENE 1020,6 20 60 0,0
29.05.2020 20:00:00 18,7 10,5 20,6 18,3 14,4 26 14 41 22 ENE 1020,5 20 60 0,0
29.05.2020 19:00:00 19,7 10,9 22,7 18,3 14,4 28 15 44 24 ENE 1020,6 20 60 0,0
29.05.2020 18:00:00 20,4 9,3 24,4 18,1 14,4 28 15 42 23 ENE 1021,1 20 60 0,0
29.05.2020 17:00:00 21,2 9,1 25,6 17,9 14,4 29 16 41 22 ENE 1021,5 20 60 0,0
29.05.2020 16:00:00 21,4 8,6 26,5 17,5 14,4 29 16 41 22 ENE 1021,7 20 60 0,0
29.05.2020 15:00:00 21,7 8,9 27,2 17,0 14,4 24 13 35 19 ENE 1022,2 20 60 0,0
29.05.2020 14:00:00 20,3 9,2 27,5 16,6 14,3 20 11 27 15 NE 1022,8 20 60 0,0
29.05.2020 13:00:00 20,4 10,5 27,8 16,2 14,3 15 8 21 11 NNE 1023,2 20 60 0,0
29.05.2020 12:00:00 20,2 10,6 25,6 15,9 14,4 15 8 22 12 NE 1023,6 20 60 0,0
29.05.2020 11:00:00 19,9 7,6 22,8 15,7 14,3 13 7 21 12 ESE 1023,9 20 60 0,0
29.05.2020 10:00:00 18,0 7,7 20,4 15,6 14,3 11 6 20 11 ESE 1024,2 20 60 0,0
29.05.2020 09:00:00 16,4 7,3 19,3 15,6 14,3 8 5 16 8 E 1024,2 20 60 0,0
29.05.2020 08:00:00 13,6 11,6 7,6 15,8 14,4 2 1 9 5 ENE 1024,3 20 60 0,0
29.05.2020 07:00:00 12,4 12,1 4,5 16,0 14,4 0 0 7 4 N 1024,6 2,5 17 0,0
29.05.2020 06:00:00 11,1 10,6 4,1 16,1 14,3 6 3 7 4 NE 1024,8 0,2 0 0,2
29.05.2020 05:00:00 11,5 10,9 4,4 16,4 14,4 3 1 6 3 N 1024,9 9 0 0,0
29.05.2020 04:00:00 11,2 10,4 5,0 16,6 14,3 4 2 7 4 N 1025,2 12 0 0,0
29.05.2020 03:00:00 11,4 10,5 5,6 16,8 14,3 5 3 11 6 NE 1025,7 14 0 0,0
29.05.2020 02:00:00 10,9 9,7 6,2 17,0 14,3 9 5 11 6 NE 1025,8 18 0 0,0
29.05.2020 01:00:00 11,8 10,0 6,2 17,2 14,3 6 3 14 8 NNE 1026,2 19 0 0,0
29.05.2020 00:00:00 11,8 9,5 9,5 17,4 14,3 10 6 18 10 ENE 1026,3 20 0 0,0
28.05.2020 23:00:00 13,4 10,4 11,7 17,7 14,3 11 6 25 14 ENE 1026,6 20 0 0,0
28.05.2020 22:00:00 14,0 10,4 12,9 17,8 14,3 14 7 29 16 ENE 1026,3 20 34 0,0
28.05.2020 21:00:00 15,5 10,7 16,1 18,0 14,3 18 10 34 19 ENE 1026,4 20 60 0,0
28.05.2020 20:00:00 16,4 10,5 18,7 18,0 14,3 24 13 41 22 ENE 1026,4 20 60 0,0
28.05.2020 19:00:00 17,2 9,9 20,9 18,0 14,3 27 15 40 21 ENE 1026,8 20 60 0,0
28.05.2020 18:00:00 18,0 11,3 21,9 17,9 14,3 31 17 44 24 ENE 1027,1 19 60 0,0
28.05.2020 17:00:00 17,9 10,5 22,7 17,6 14,4 31 17 44 24 ENE 1027,6 20 60 0,0
28.05.2020 16:00:00 17,9 10,8 23,2 17,3 14,3 32 18 42 23 NE 1028,4 15 60 0,0
28.05.2020 15:00:00 18,9 10,5 24,2 17,0 14,3 30 16 44 24 NE 1028,8 20 60 0,0
28.05.2020 14:00:00 18,5 9,8 24,2 16,7 14,3 29 15 42 23 ENE 1029,3 20 60 0,0
28.05.2020 13:00:00 18,0 11,1 22,5 16,4 14,3 29 16 43 23 ENE 1029,8 19 60 0,0
28.05.2020 12:00:00 17,3 10,9 22,7 16,2 14,3 29 16 40 22 NE 1030,3 20 60 0,0
28.05.2020 11:00:00 18,1 11,6 21,9 16,0 14,3 22 12 29 16 ENE 1030,7 20 60 0,0
28.05.2020 10:00:00 17,6 11,2 20,6 16,0 14,4 19 10 27 14 ENE 1031,0 19 60 0,0
28.05.2020 09:00:00 16,6 11,9 17,5 16,0 14,3 13 7 23 12 ENE 1031,2 20 60 0,0

tt = Température de l'air
td = dewpoint
tt 5cm = Température de l'air 5cm
tt -20cm = Température de l'air -20cm
tt -100cm = Température de l'air -100cm
ff = Vitesse du vent
fx = gusts
dd = Direction du vent
ppp = reduced air pressure
vv = visibility
sd = Ensoleillement
rr = Quantités de précipitations

stations d'obs. à proximité